Year,Month,Day,Hour,Minute,Value (Times are PST for temperature in C)
2013,06,28,00,00,15.10
2013,06,28,00,01,15.10
2013,06,28,00,02,15.10
2013,06,28,00,03,15.10
2013,06,28,00,04,15.10
2013,06,28,00,05,15.10
2013,06,28,00,06,15.00
2013,06,28,00,07,15.00
2013,06,28,00,08,15.00
2013,06,28,00,09,15.00
2013,06,28,00,10,15.00
2013,06,28,00,11,15.00
2013,06,28,00,12,15.00
2013,06,28,00,13,14.90
2013,06,28,00,14,14.90
2013,06,28,00,15,14.90
2013,06,28,00,16,14.90
2013,06,28,00,17,14.90
2013,06,28,00,18,14.90
2013,06,28,00,19,14.90
2013,06,28,00,20,14.90
2013,06,28,00,21,14.90
2013,06,28,00,22,14.90
2013,06,28,00,23,14.80
2013,06,28,00,24,14.80
2013,06,28,00,25,14.80
2013,06,28,00,26,14.80
2013,06,28,00,27,14.80
2013,06,28,00,28,14.80
2013,06,28,00,29,14.80
2013,06,28,00,30,14.80
2013,06,28,00,31,14.80
2013,06,28,00,32,14.80
2013,06,28,00,33,14.70
2013,06,28,00,34,14.70
2013,06,28,00,35,14.70
2013,06,28,00,36,14.70
2013,06,28,00,37,14.70
2013,06,28,00,38,14.70
2013,06,28,00,39,14.70
2013,06,28,00,40,14.70
2013,06,28,00,41,14.70
2013,06,28,00,42,14.60
2013,06,28,00,43,14.60
2013,06,28,00,44,14.60
2013,06,28,00,45,14.60
2013,06,28,00,46,14.60
2013,06,28,00,47,14.60
2013,06,28,00,48,14.60
2013,06,28,00,49,14.50
2013,06,28,00,50,14.50
2013,06,28,00,51,14.50
2013,06,28,00,52,14.50
2013,06,28,00,53,14.50
2013,06,28,00,54,14.40
2013,06,28,00,55,14.40
2013,06,28,00,56,14.40
2013,06,28,00,57,14.40
2013,06,28,00,58,14.40
2013,06,28,00,59,14.40
2013,06,28,01,00,14.40
2013,06,28,01,01,14.40
2013,06,28,01,02,14.40
2013,06,28,01,03,14.30
2013,06,28,01,04,14.30
2013,06,28,01,05,14.30
2013,06,28,01,06,14.30
2013,06,28,01,07,14.30
2013,06,28,01,08,14.30
2013,06,28,01,09,14.30
2013,06,28,01,10,14.30
2013,06,28,01,11,14.30
2013,06,28,01,12,14.30
2013,06,28,01,13,14.30
2013,06,28,01,14,14.20
2013,06,28,01,15,14.20
2013,06,28,01,16,14.20
2013,06,28,01,17,14.20
2013,06,28,01,18,14.20
2013,06,28,01,19,14.20
2013,06,28,01,20,14.20
2013,06,28,01,21,14.20
2013,06,28,01,22,14.20
2013,06,28,01,23,14.20
2013,06,28,01,24,14.20
2013,06,28,01,25,14.20
2013,06,28,01,26,14.20
2013,06,28,01,27,14.20
2013,06,28,01,28,14.10
2013,06,28,01,29,14.20
2013,06,28,01,30,14.20
2013,06,28,01,31,14.20
2013,06,28,01,32,14.20
2013,06,28,01,33,14.20
2013,06,28,01,34,14.20
2013,06,28,01,35,14.20
2013,06,28,01,36,14.20
2013,06,28,01,37,14.20
2013,06,28,01,38,14.20
2013,06,28,01,39,14.20
2013,06,28,01,40,14.20
2013,06,28,01,41,14.20
2013,06,28,01,42,14.30
2013,06,28,01,43,14.30
2013,06,28,01,44,14.30
2013,06,28,01,45,14.30
2013,06,28,01,46,14.30
2013,06,28,01,47,14.30
2013,06,28,01,48,14.40
2013,06,28,01,49,14.40
2013,06,28,01,50,14.40
2013,06,28,01,51,14.40
2013,06,28,01,52,14.40
2013,06,28,01,53,14.40
2013,06,28,01,54,14.40
2013,06,28,01,55,14.40
2013,06,28,01,56,14.40
2013,06,28,01,57,14.50
2013,06,28,01,58,14.50
2013,06,28,01,59,14.50
2013,06,28,02,00,14.50
2013,06,28,02,01,14.60
2013,06,28,02,02,14.60
2013,06,28,02,03,14.60
2013,06,28,02,04,14.60
2013,06,28,02,05,14.60
2013,06,28,02,06,14.60
2013,06,28,02,07,14.60
2013,06,28,02,08,14.60
2013,06,28,02,09,14.60
2013,06,28,02,10,14.60
2013,06,28,02,11,14.60
2013,06,28,02,12,14.60
2013,06,28,02,13,14.60
2013,06,28,02,14,14.60
2013,06,28,02,15,14.60
2013,06,28,02,16,14.60
2013,06,28,02,17,14.60
2013,06,28,02,18,14.60
2013,06,28,02,19,14.50
2013,06,28,02,20,14.50
2013,06,28,02,21,14.50
2013,06,28,02,22,14.50
2013,06,28,02,23,14.50
2013,06,28,02,24,14.50
2013,06,28,02,25,14.50
2013,06,28,02,26,14.50
2013,06,28,02,27,14.40
2013,06,28,02,28,14.40
2013,06,28,02,29,14.40
2013,06,28,02,30,14.40
2013,06,28,02,31,14.40
2013,06,28,02,32,14.40
2013,06,28,02,33,14.40
2013,06,28,02,34,14.30
2013,06,28,02,35,14.30
2013,06,28,02,36,14.30
2013,06,28,02,37,14.30
2013,06,28,02,38,14.30
2013,06,28,02,39,14.30
2013,06,28,02,40,14.30
2013,06,28,02,41,14.30
2013,06,28,02,42,14.30
2013,06,28,02,43,14.30
2013,06,28,02,44,14.30
2013,06,28,02,45,14.30
2013,06,28,02,46,14.30
2013,06,28,02,47,14.30
2013,06,28,02,48,14.30
2013,06,28,02,49,14.30
2013,06,28,02,50,14.30
2013,06,28,02,51,14.30
2013,06,28,02,52,14.30
2013,06,28,02,53,14.30
2013,06,28,02,54,14.30
2013,06,28,02,55,14.30
2013,06,28,02,56,14.30
2013,06,28,02,57,14.30
2013,06,28,02,58,14.30
2013,06,28,02,59,14.30
2013,06,28,03,00,14.30
2013,06,28,03,01,14.40
2013,06,28,03,02,14.40
2013,06,28,03,03,14.40
2013,06,28,03,04,14.40
2013,06,28,03,05,14.40
2013,06,28,03,06,14.40
2013,06,28,03,07,14.40
2013,06,28,03,08,14.40
2013,06,28,03,09,14.40
2013,06,28,03,10,14.40
2013,06,28,03,11,14.40
2013,06,28,03,12,14.40
2013,06,28,03,13,14.50
2013,06,28,03,14,14.50
2013,06,28,03,15,14.50
2013,06,28,03,16,14.50
2013,06,28,03,17,14.50
2013,06,28,03,18,14.50
2013,06,28,03,19,14.50
2013,06,28,03,20,14.60
2013,06,28,03,21,14.60
2013,06,28,03,22,14.60
2013,06,28,03,23,14.60
2013,06,28,03,24,14.60
2013,06,28,03,25,14.60
2013,06,28,03,26,14.60
2013,06,28,03,27,14.60
2013,06,28,03,28,14.50
2013,06,28,03,29,14.50
2013,06,28,03,30,14.50
2013,06,28,03,31,14.50
2013,06,28,03,32,14.60
2013,06,28,03,33,14.60
2013,06,28,03,34,14.60
2013,06,28,03,35,14.60
2013,06,28,03,36,14.60
2013,06,28,03,37,14.60
2013,06,28,03,38,14.60
2013,06,28,03,39,14.60
2013,06,28,03,40,14.60
2013,06,28,03,41,14.60
2013,06,28,03,42,14.60
2013,06,28,03,43,14.60
2013,06,28,03,44,14.60
2013,06,28,03,45,14.60
2013,06,28,03,46,14.60
2013,06,28,03,47,14.60
2013,06,28,03,48,14.60
2013,06,28,03,49,14.60
2013,06,28,03,50,14.60
2013,06,28,03,51,14.60
2013,06,28,03,52,14.60
2013,06,28,03,53,14.60
2013,06,28,03,54,14.60
2013,06,28,03,55,14.60
2013,06,28,03,56,14.60
2013,06,28,03,57,14.60
2013,06,28,03,58,14.60
2013,06,28,03,59,14.60
2013,06,28,04,00,14.60
2013,06,28,04,01,14.60
2013,06,28,04,02,14.60
2013,06,28,04,03,14.60
2013,06,28,04,04,14.60
2013,06,28,04,05,14.60
2013,06,28,04,06,14.60
2013,06,28,04,07,14.60
2013,06,28,04,08,14.60
2013,06,28,04,09,14.60
2013,06,28,04,10,14.70
2013,06,28,04,11,14.70
2013,06,28,04,12,14.70
2013,06,28,04,13,14.60
2013,06,28,04,14,14.60
2013,06,28,04,15,14.60
2013,06,28,04,16,14.60
2013,06,28,04,17,14.60
2013,06,28,04,18,14.60
2013,06,28,04,19,14.60
2013,06,28,04,20,14.60
2013,06,28,04,21,14.70
2013,06,28,04,22,14.70
2013,06,28,04,23,14.70
2013,06,28,04,24,14.70
2013,06,28,04,25,14.70
2013,06,28,04,26,14.70
2013,06,28,04,27,14.70
2013,06,28,04,28,14.70
2013,06,28,04,29,14.60
2013,06,28,04,30,14.60
2013,06,28,04,31,14.60
2013,06,28,04,32,14.60
2013,06,28,04,33,14.60
2013,06,28,04,34,14.60
2013,06,28,04,35,14.60
2013,06,28,04,36,14.60
2013,06,28,04,37,14.60
2013,06,28,04,38,14.60
2013,06,28,04,39,14.60
2013,06,28,04,40,14.60
2013,06,28,04,41,14.60
2013,06,28,04,42,14.60
2013,06,28,04,43,14.60
2013,06,28,04,44,14.60
2013,06,28,04,45,14.60
2013,06,28,04,46,14.60
2013,06,28,04,47,14.60
2013,06,28,04,48,14.60
2013,06,28,04,49,14.60
2013,06,28,04,50,14.60
2013,06,28,04,51,14.60
2013,06,28,04,52,14.60
2013,06,28,04,53,14.60
2013,06,28,04,54,14.60
2013,06,28,04,55,14.60
2013,06,28,04,56,14.60
2013,06,28,04,57,14.60
2013,06,28,04,58,14.50
2013,06,28,04,59,14.50
2013,06,28,05,00,14.60
2013,06,28,05,01,14.50
2013,06,28,05,02,14.50
2013,06,28,05,03,14.50
2013,06,28,05,04,14.50
2013,06,28,05,05,14.50
2013,06,28,05,06,14.40
2013,06,28,05,07,14.40
2013,06,28,05,08,14.40
2013,06,28,05,09,14.40
2013,06,28,05,10,14.40
2013,06,28,05,11,14.40
2013,06,28,05,12,14.40
2013,06,28,05,13,14.40
2013,06,28,05,14,14.40
2013,06,28,05,15,14.40
2013,06,28,05,16,14.40
2013,06,28,05,17,14.40
2013,06,28,05,18,14.40
2013,06,28,05,19,14.40
2013,06,28,05,20,14.40
2013,06,28,05,21,14.40
2013,06,28,05,22,14.40
2013,06,28,05,23,14.40
2013,06,28,05,24,14.40
2013,06,28,05,25,14.40
2013,06,28,05,26,14.50
2013,06,28,05,27,14.50
2013,06,28,05,28,14.50
2013,06,28,05,29,14.50
2013,06,28,05,30,14.50
2013,06,28,05,31,14.50
2013,06,28,05,32,14.50
2013,06,28,05,33,14.50
2013,06,28,05,34,14.50
2013,06,28,05,35,14.50
2013,06,28,05,36,14.50
2013,06,28,05,37,14.50
2013,06,28,05,38,14.50
2013,06,28,05,39,14.50
2013,06,28,05,40,14.60
2013,06,28,05,41,14.60
2013,06,28,05,42,14.60
2013,06,28,05,43,14.60
2013,06,28,05,44,14.60
2013,06,28,05,45,14.60
2013,06,28,05,46,14.60
2013,06,28,05,47,14.60
2013,06,28,05,48,14.70
2013,06,28,05,49,14.70
2013,06,28,05,50,14.70
2013,06,28,05,51,14.70
2013,06,28,05,52,14.70
2013,06,28,05,53,14.70
2013,06,28,05,54,14.70
2013,06,28,05,55,14.70
2013,06,28,05,56,14.70
2013,06,28,05,57,14.70
2013,06,28,05,58,14.70
2013,06,28,05,59,14.70
2013,06,28,06,00,14.70
2013,06,28,06,01,14.70
2013,06,28,06,02,14.70
2013,06,28,06,03,14.70
2013,06,28,06,04,14.70
2013,06,28,06,05,14.70
2013,06,28,06,06,14.80
2013,06,28,06,07,14.80
2013,06,28,06,08,14.80
2013,06,28,06,09,14.80
2013,06,28,06,10,14.80
2013,06,28,06,11,14.80
2013,06,28,06,12,14.80
2013,06,28,06,13,14.80
2013,06,28,06,14,14.80
2013,06,28,06,15,14.80
2013,06,28,06,16,14.80
2013,06,28,06,17,14.90
2013,06,28,06,18,14.90
2013,06,28,06,19,14.90
2013,06,28,06,20,14.90
2013,06,28,06,21,14.90
2013,06,28,06,22,14.90
2013,06,28,06,23,14.90
2013,06,28,06,24,14.90
2013,06,28,06,25,14.90
2013,06,28,06,26,14.90
2013,06,28,06,27,14.90
2013,06,28,06,28,14.90
2013,06,28,06,29,14.90
2013,06,28,06,30,14.90
2013,06,28,06,31,14.90
2013,06,28,06,32,14.90
2013,06,28,06,33,15.00
2013,06,28,06,34,15.00
2013,06,28,06,35,15.00
2013,06,28,06,36,15.00
2013,06,28,06,37,15.00
2013,06,28,06,38,15.00
2013,06,28,06,39,15.00
2013,06,28,06,40,15.00
2013,06,28,06,41,15.00
2013,06,28,06,42,15.00
2013,06,28,06,43,15.00
2013,06,28,06,44,15.00
2013,06,28,06,45,15.00
2013,06,28,06,46,15.10
2013,06,28,06,47,15.10
2013,06,28,06,48,15.10
2013,06,28,06,49,15.10
2013,06,28,06,50,15.10
2013,06,28,06,51,15.10
2013,06,28,06,52,15.10
2013,06,28,06,53,15.10
2013,06,28,06,54,15.10
2013,06,28,06,55,15.10
2013,06,28,06,56,15.10
2013,06,28,06,57,15.10
2013,06,28,06,58,15.10
2013,06,28,06,59,15.20
2013,06,28,07,00,15.20
2013,06,28,07,01,15.20
2013,06,28,07,02,15.20
2013,06,28,07,03,15.20
2013,06,28,07,04,15.20
2013,06,28,07,05,15.20
2013,06,28,07,06,15.20
2013,06,28,07,07,15.30
2013,06,28,07,08,15.30
2013,06,28,07,09,15.30
2013,06,28,07,10,15.30
2013,06,28,07,11,15.30
2013,06,28,07,12,15.30
2013,06,28,07,13,15.30
2013,06,28,07,14,15.30
2013,06,28,07,15,15.30
2013,06,28,07,16,15.40
2013,06,28,07,17,15.40
2013,06,28,07,18,15.40
2013,06,28,07,19,15.40
2013,06,28,07,20,15.50
2013,06,28,07,21,15.50
2013,06,28,07,22,15.50
2013,06,28,07,23,15.60
2013,06,28,07,24,15.60
2013,06,28,07,25,15.60
2013,06,28,07,26,15.60
2013,06,28,07,27,15.60
2013,06,28,07,28,15.60
2013,06,28,07,29,15.70
2013,06,28,07,30,15.70
2013,06,28,07,31,15.70
2013,06,28,07,32,15.70
2013,06,28,07,33,15.70
2013,06,28,07,34,15.80
2013,06,28,07,35,15.80
2013,06,28,07,36,15.80
2013,06,28,07,37,15.80
2013,06,28,07,38,15.80
2013,06,28,07,39,15.80
2013,06,28,07,40,15.80
2013,06,28,07,41,15.80
2013,06,28,07,42,15.80
2013,06,28,07,43,15.80
2013,06,28,07,44,15.80
2013,06,28,07,45,15.80
2013,06,28,07,46,15.80
2013,06,28,07,47,15.80
2013,06,28,07,48,15.80
2013,06,28,07,49,15.80
2013,06,28,07,50,15.80
2013,06,28,07,51,15.80
2013,06,28,07,52,15.80
2013,06,28,07,53,15.80
2013,06,28,07,54,15.80
2013,06,28,07,55,15.80
2013,06,28,07,56,15.80
2013,06,28,07,57,15.80
2013,06,28,07,58,15.80
2013,06,28,07,59,15.80
2013,06,28,08,00,15.80
2013,06,28,08,01,15.80
2013,06,28,08,02,15.80
2013,06,28,08,03,15.80
2013,06,28,08,04,15.80
2013,06,28,08,05,15.80
2013,06,28,08,06,15.80
2013,06,28,08,07,15.80
2013,06,28,08,08,15.80
2013,06,28,08,09,15.80
2013,06,28,08,10,15.80
2013,06,28,08,11,15.80
2013,06,28,08,12,15.80
2013,06,28,08,13,15.80
2013,06,28,08,14,15.80
2013,06,28,08,15,15.80
2013,06,28,08,16,15.80
2013,06,28,08,17,15.80
2013,06,28,08,18,15.80
2013,06,28,08,19,15.80
2013,06,28,08,20,15.80
2013,06,28,08,21,15.80
2013,06,28,08,22,15.90
2013,06,28,08,23,15.90
2013,06,28,08,24,15.90
2013,06,28,08,25,15.90
2013,06,28,08,26,15.90
2013,06,28,08,27,15.90
2013,06,28,08,28,15.90
2013,06,28,08,29,15.90
2013,06,28,08,30,15.90
2013,06,28,08,31,16.00
2013,06,28,08,32,16.00
2013,06,28,08,33,16.00
2013,06,28,08,34,16.10
2013,06,28,08,35,16.10
2013,06,28,08,36,16.10
2013,06,28,08,37,16.20
2013,06,28,08,38,16.20
2013,06,28,08,39,16.20
2013,06,28,08,40,16.30
2013,06,28,08,41,16.30
2013,06,28,08,42,16.30
2013,06,28,08,43,16.30
2013,06,28,08,44,16.30
2013,06,28,08,45,16.40
2013,06,28,08,46,16.40
2013,06,28,08,47,16.40
2013,06,28,08,48,16.40
2013,06,28,08,49,16.40
2013,06,28,08,50,16.40
2013,06,28,08,51,16.40
2013,06,28,08,52,16.40
2013,06,28,08,53,16.50
2013,06,28,08,54,16.50
2013,06,28,08,55,16.50
2013,06,28,08,56,16.60
2013,06,28,08,57,16.60
2013,06,28,08,58,16.60
2013,06,28,08,59,16.60
2013,06,28,09,00,16.60
2013,06,28,09,01,16.60
2013,06,28,09,02,16.60
2013,06,28,09,03,16.70
2013,06,28,09,04,16.70
2013,06,28,09,05,16.70
2013,06,28,09,06,16.70
2013,06,28,09,07,16.70
2013,06,28,09,08,16.70
2013,06,28,09,09,16.70
2013,06,28,09,10,16.80
2013,06,28,09,11,16.80
2013,06,28,09,12,16.80
2013,06,28,09,13,16.80
2013,06,28,09,14,16.90
2013,06,28,09,15,16.90
2013,06,28,09,16,16.90
2013,06,28,09,17,16.90
2013,06,28,09,18,16.90
2013,06,28,09,19,17.00
2013,06,28,09,20,17.00
2013,06,28,09,21,17.00
2013,06,28,09,22,17.10
2013,06,28,09,23,17.10
2013,06,28,09,24,17.10
2013,06,28,09,25,17.10
2013,06,28,09,26,17.10
2013,06,28,09,27,17.20
2013,06,28,09,28,17.20
2013,06,28,09,29,17.20
2013,06,28,09,30,17.20
2013,06,28,09,31,17.20
2013,06,28,09,32,17.20
2013,06,28,09,33,17.20
2013,06,28,09,34,17.20
2013,06,28,09,35,17.20
2013,06,28,09,36,17.20
2013,06,28,09,37,17.20
2013,06,28,09,38,17.30
2013,06,28,09,39,17.30
2013,06,28,09,40,17.30
2013,06,28,09,41,17.30
2013,06,28,09,42,17.30
2013,06,28,09,43,17.30
2013,06,28,09,44,17.30
2013,06,28,09,45,17.30
2013,06,28,09,46,17.30
2013,06,28,09,47,17.30
2013,06,28,09,48,17.30
2013,06,28,09,49,17.30
2013,06,28,09,50,17.30
2013,06,28,09,51,17.30
2013,06,28,09,52,17.30
2013,06,28,09,53,17.30
2013,06,28,09,54,17.30
2013,06,28,09,55,17.30
2013,06,28,09,56,17.30
2013,06,28,09,57,17.30
2013,06,28,09,58,17.30
2013,06,28,09,59,17.30
2013,06,28,10,00,17.30
2013,06,28,10,01,17.30
2013,06,28,10,02,17.30
2013,06,28,10,03,17.30
2013,06,28,10,04,17.30
2013,06,28,10,05,17.30
2013,06,28,10,06,17.30
2013,06,28,10,07,17.30
2013,06,28,10,08,17.30
2013,06,28,10,09,17.30
2013,06,28,10,10,17.30
2013,06,28,10,11,17.30
2013,06,28,10,12,17.40
2013,06,28,10,13,17.40
2013,06,28,10,14,17.50
2013,06,28,10,15,17.50
2013,06,28,10,16,17.50
2013,06,28,10,17,17.60
2013,06,28,10,18,17.60
2013,06,28,10,19,17.60
2013,06,28,10,20,17.60
2013,06,28,10,21,17.60
2013,06,28,10,22,17.60
2013,06,28,10,23,17.60
2013,06,28,10,24,17.60
2013,06,28,10,25,17.60
2013,06,28,10,26,17.60
2013,06,28,10,27,17.50
2013,06,28,10,28,17.50
2013,06,28,10,29,17.50
2013,06,28,10,30,17.50
2013,06,28,10,31,17.50
2013,06,28,10,32,17.50
2013,06,28,10,33,17.50
2013,06,28,10,34,17.50
2013,06,28,10,35,17.50
2013,06,28,10,36,17.60
2013,06,28,10,37,17.60
2013,06,28,10,38,17.60
2013,06,28,10,39,17.60
2013,06,28,10,40,17.60
2013,06,28,10,41,17.70
2013,06,28,10,42,17.70
2013,06,28,10,43,17.70
2013,06,28,10,44,17.70
2013,06,28,10,45,17.60
2013,06,28,10,46,17.60
2013,06,28,10,47,17.60
2013,06,28,10,48,17.60
2013,06,28,10,49,17.60
2013,06,28,10,50,17.60
2013,06,28,10,51,17.60
2013,06,28,10,52,17.70
2013,06,28,10,53,17.70
2013,06,28,10,54,17.70
2013,06,28,10,55,17.70
2013,06,28,10,56,17.80
2013,06,28,10,57,17.80
2013,06,28,10,58,17.80
2013,06,28,10,59,17.80
2013,06,28,11,00,17.80
2013,06,28,11,01,17.80
2013,06,28,11,02,17.80
2013,06,28,11,03,17.80
2013,06,28,11,04,17.80
2013,06,28,11,05,17.80
2013,06,28,11,06,17.90
2013,06,28,11,07,17.90
2013,06,28,11,08,17.90
2013,06,28,11,09,17.90
2013,06,28,11,10,18.00
2013,06,28,11,11,17.90
2013,06,28,11,12,17.90
2013,06,28,11,13,17.90
2013,06,28,11,14,17.90
2013,06,28,11,15,17.90
2013,06,28,11,16,17.90
2013,06,28,11,17,17.90
2013,06,28,11,18,17.90
2013,06,28,11,19,17.90
2013,06,28,11,20,17.90
2013,06,28,11,21,17.90
2013,06,28,11,22,17.90
2013,06,28,11,23,17.90
2013,06,28,11,24,17.90
2013,06,28,11,25,17.90
2013,06,28,11,26,17.90
2013,06,28,11,27,17.90
2013,06,28,11,28,17.90
2013,06,28,11,29,17.90
2013,06,28,11,30,17.90
2013,06,28,11,31,17.90
2013,06,28,11,32,17.90
2013,06,28,11,33,17.90
2013,06,28,11,34,17.80
2013,06,28,11,35,17.80
2013,06,28,11,36,17.80
2013,06,28,11,37,17.80
2013,06,28,11,38,17.70
2013,06,28,11,39,17.70
2013,06,28,11,40,17.70
2013,06,28,11,41,17.70
2013,06,28,11,42,17.60
2013,06,28,11,43,17.60
2013,06,28,11,44,17.60
2013,06,28,11,45,17.60
2013,06,28,11,46,17.50
2013,06,28,11,47,17.50
2013,06,28,11,48,17.40
2013,06,28,11,49,17.40
2013,06,28,11,50,17.30
2013,06,28,11,51,17.30
2013,06,28,11,52,17.20
2013,06,28,11,53,17.20
2013,06,28,11,54,17.10
2013,06,28,11,55,17.10
2013,06,28,11,56,17.00
2013,06,28,11,57,17.00
2013,06,28,11,58,16.90
2013,06,28,11,59,16.90
2013,06,28,12,00,16.90
2013,06,28,12,01,16.80
2013,06,28,12,02,16.80
2013,06,28,12,03,16.80
2013,06,28,12,04,16.80
2013,06,28,12,05,16.80
2013,06,28,12,06,16.80
2013,06,28,12,07,16.70
2013,06,28,12,08,16.70
2013,06,28,12,09,16.70
2013,06,28,12,10,16.70
2013,06,28,12,11,16.60
2013,06,28,12,12,16.60
2013,06,28,12,13,16.60
2013,06,28,12,14,16.60
2013,06,28,12,15,16.60
2013,06,28,12,16,16.60
2013,06,28,12,17,16.60
2013,06,28,12,18,16.60
2013,06,28,12,19,16.60
2013,06,28,12,20,16.60
2013,06,28,12,21,16.60
2013,06,28,12,22,16.60
2013,06,28,12,23,16.60
2013,06,28,12,24,16.60
2013,06,28,12,25,16.60
2013,06,28,12,26,16.70
2013,06,28,12,27,16.70
2013,06,28,12,28,16.70
2013,06,28,12,29,16.70
2013,06,28,12,30,16.70
2013,06,28,12,31,16.70
2013,06,28,12,32,16.80
2013,06,28,12,33,16.80
2013,06,28,12,34,16.80
2013,06,28,12,35,16.90
2013,06,28,12,36,16.90
2013,06,28,12,37,16.90
2013,06,28,12,38,16.90
2013,06,28,12,39,17.00
2013,06,28,12,40,17.10
2013,06,28,12,41,17.10
2013,06,28,12,42,17.10
2013,06,28,12,43,17.20
2013,06,28,12,44,17.20
2013,06,28,12,45,17.20
2013,06,28,12,46,17.30
2013,06,28,12,47,17.30
2013,06,28,12,48,17.40
2013,06,28,12,49,17.40
2013,06,28,12,50,17.50
2013,06,28,12,51,17.60
2013,06,28,12,52,17.70
2013,06,28,12,53,17.70
2013,06,28,12,54,17.80
2013,06,28,12,55,17.90
2013,06,28,12,56,17.90
2013,06,28,12,57,18.00
2013,06,28,12,58,18.10
2013,06,28,12,59,18.20
2013,06,28,13,00,18.20
2013,06,28,13,01,18.30
2013,06,28,13,02,18.30
2013,06,28,13,03,18.30
2013,06,28,13,04,18.30
2013,06,28,13,05,18.30
2013,06,28,13,06,18.30
2013,06,28,13,07,18.30
2013,06,28,13,08,18.30
2013,06,28,13,09,18.30
2013,06,28,13,10,18.30
2013,06,28,13,11,18.30
2013,06,28,13,12,18.30
2013,06,28,13,13,18.30
2013,06,28,13,14,18.30
2013,06,28,13,15,18.30
2013,06,28,13,16,18.30
2013,06,28,13,17,18.30
2013,06,28,13,18,18.30
2013,06,28,13,19,18.30
2013,06,28,13,20,18.30
2013,06,28,13,21,18.30
2013,06,28,13,22,18.30
2013,06,28,13,23,18.30
2013,06,28,13,24,18.30
2013,06,28,13,25,18.40
2013,06,28,13,26,18.40
2013,06,28,13,27,18.40
2013,06,28,13,28,18.50
2013,06,28,13,29,18.50
2013,06,28,13,30,18.60
2013,06,28,13,31,18.60
2013,06,28,13,32,18.70
2013,06,28,13,33,18.70
2013,06,28,13,34,18.70
2013,06,28,13,35,18.70
2013,06,28,13,36,18.70
2013,06,28,13,37,18.70
2013,06,28,13,38,18.70
2013,06,28,13,39,18.70
2013,06,28,13,40,18.70
2013,06,28,13,41,18.70
2013,06,28,13,42,18.70
2013,06,28,13,43,18.70
2013,06,28,13,44,18.70
2013,06,28,13,45,18.70
2013,06,28,13,46,18.70
2013,06,28,13,47,18.60
2013,06,28,13,48,18.60
2013,06,28,13,49,18.60
2013,06,28,13,50,18.60
2013,06,28,13,51,18.60
2013,06,28,13,52,18.60
2013,06,28,13,53,18.60
2013,06,28,13,54,18.60
2013,06,28,13,55,18.50
2013,06,28,13,56,18.50
2013,06,28,13,57,18.50
2013,06,28,13,58,18.40
2013,06,28,13,59,18.40
2013,06,28,14,00,18.40
2013,06,28,14,01,18.40
2013,06,28,14,02,18.40
2013,06,28,14,03,18.50
2013,06,28,14,04,18.50
2013,06,28,14,05,18.50
2013,06,28,14,06,18.50
2013,06,28,14,07,18.40
2013,06,28,14,08,18.40
2013,06,28,14,09,18.40
2013,06,28,14,10,18.40
2013,06,28,14,11,18.40
2013,06,28,14,12,18.40
2013,06,28,14,13,18.30
2013,06,28,14,14,18.30
2013,06,28,14,15,18.30
2013,06,28,14,16,18.30
2013,06,28,14,17,18.30
2013,06,28,14,18,18.30
2013,06,28,14,19,18.30
2013,06,28,14,20,18.30
2013,06,28,14,21,18.30
2013,06,28,14,22,18.40
2013,06,28,14,23,18.40
2013,06,28,14,24,18.40
2013,06,28,14,25,18.40
2013,06,28,14,26,18.50
2013,06,28,14,27,18.50
2013,06,28,14,28,18.50
2013,06,28,14,29,18.60
2013,06,28,14,30,18.60
2013,06,28,14,31,18.60
2013,06,28,14,32,18.70
2013,06,28,14,33,18.70
2013,06,28,14,34,18.70
2013,06,28,14,35,18.70
2013,06,28,14,36,18.60
2013,06,28,14,37,18.60
2013,06,28,14,38,18.60
2013,06,28,14,39,18.70
2013,06,28,14,40,18.70
2013,06,28,14,41,18.70
2013,06,28,14,42,18.70
2013,06,28,14,43,18.80
2013,06,28,14,44,18.80
2013,06,28,14,45,18.80
2013,06,28,14,46,18.80
2013,06,28,14,47,18.70
2013,06,28,14,48,18.70
2013,06,28,14,49,18.70
2013,06,28,14,50,18.70
2013,06,28,14,51,18.80
2013,06,28,14,52,18.80
2013,06,28,14,53,18.80
2013,06,28,14,54,18.80
2013,06,28,14,55,18.80
2013,06,28,14,56,18.80
2013,06,28,14,57,18.90
2013,06,28,14,58,18.90
2013,06,28,14,59,18.90
2013,06,28,15,00,19.00
2013,06,28,15,01,19.00
2013,06,28,15,02,19.10
2013,06,28,15,03,19.10
2013,06,28,15,04,19.10
2013,06,28,15,05,19.10
2013,06,28,15,06,19.10
2013,06,28,15,07,19.10
2013,06,28,15,08,19.10
2013,06,28,15,09,19.10
2013,06,28,15,10,19.10
2013,06,28,15,11,19.10
2013,06,28,15,12,19.10
2013,06,28,15,13,19.10
2013,06,28,15,14,19.10
2013,06,28,15,15,19.10
2013,06,28,15,16,19.10
2013,06,28,15,17,19.10
2013,06,28,15,18,19.00
2013,06,28,15,19,19.00
2013,06,28,15,20,19.00
2013,06,28,15,21,19.00
2013,06,28,15,22,19.00
2013,06,28,15,23,18.90
2013,06,28,15,24,18.90
2013,06,28,15,25,18.90
2013,06,28,15,26,18.80
2013,06,28,15,27,18.80
2013,06,28,15,28,18.80
2013,06,28,15,29,18.80
2013,06,28,15,30,18.70
2013,06,28,15,31,18.70
2013,06,28,15,32,18.60
2013,06,28,15,33,18.60
2013,06,28,15,34,18.60
2013,06,28,15,35,18.50
2013,06,28,15,36,18.50
2013,06,28,15,37,18.50
2013,06,28,15,38,18.50
2013,06,28,15,39,18.50
2013,06,28,15,40,18.50
2013,06,28,15,41,18.40
2013,06,28,15,42,18.40
2013,06,28,15,43,18.40
2013,06,28,15,44,18.40
2013,06,28,15,45,18.40
2013,06,28,15,46,18.30
2013,06,28,15,47,18.30
2013,06,28,15,48,18.30
2013,06,28,15,49,18.20
2013,06,28,15,50,18.20
2013,06,28,15,51,18.20
2013,06,28,15,52,18.10
2013,06,28,15,53,18.10
2013,06,28,15,54,18.10
2013,06,28,15,55,18.00
2013,06,28,15,56,18.00
2013,06,28,15,57,17.90
2013,06,28,15,58,17.90
2013,06,28,15,59,17.80
2013,06,28,16,00,17.80
2013,06,28,16,01,17.80
2013,06,28,16,02,17.80
2013,06,28,16,03,17.70
2013,06,28,16,04,17.70
2013,06,28,16,05,17.70
2013,06,28,16,06,17.70
2013,06,28,16,07,17.60
2013,06,28,16,08,17.60
2013,06,28,16,09,17.60
2013,06,28,16,10,17.60
2013,06,28,16,11,17.60
2013,06,28,16,12,17.60
2013,06,28,16,13,17.60
2013,06,28,16,14,17.60
2013,06,28,16,15,17.50
2013,06,28,16,16,17.50
2013,06,28,16,17,17.50
2013,06,28,16,18,17.50
2013,06,28,16,19,17.50
2013,06,28,16,20,17.40
2013,06,28,16,21,17.40
2013,06,28,16,22,17.40
2013,06,28,16,23,17.40
2013,06,28,16,24,17.40
2013,06,28,16,25,17.40
2013,06,28,16,26,17.40
2013,06,28,16,27,17.40
2013,06,28,16,28,17.40
2013,06,28,16,29,17.30
2013,06,28,16,30,17.30
2013,06,28,16,31,17.30
2013,06,28,16,32,17.30
2013,06,28,16,33,17.30
2013,06,28,16,34,17.30
2013,06,28,16,35,17.30
2013,06,28,16,36,17.30
2013,06,28,16,37,17.30
2013,06,28,16,38,17.30
2013,06,28,16,39,17.30
2013,06,28,16,40,17.20
2013,06,28,16,41,17.20
2013,06,28,16,42,17.20
2013,06,28,16,43,17.20
2013,06,28,16,44,17.20
2013,06,28,16,45,17.20
2013,06,28,16,46,17.20
2013,06,28,16,47,17.20
2013,06,28,16,48,17.10
2013,06,28,16,49,17.10
2013,06,28,16,50,17.10
2013,06,28,16,51,17.10
2013,06,28,16,52,17.10
2013,06,28,16,53,17.10
2013,06,28,16,54,17.10
2013,06,28,16,55,17.10
2013,06,28,16,56,17.10
2013,06,28,16,57,17.10
2013,06,28,16,58,17.10
2013,06,28,16,59,17.00
2013,06,28,17,00,17.00
2013,06,28,17,01,17.00
2013,06,28,17,02,17.00
2013,06,28,17,03,16.90
2013,06,28,17,04,16.90
2013,06,28,17,05,16.90
2013,06,28,17,06,16.90
2013,06,28,17,07,16.90
2013,06,28,17,08,16.80
2013,06,28,17,09,16.80
2013,06,28,17,10,16.80
2013,06,28,17,11,16.80
2013,06,28,17,12,16.80
2013,06,28,17,13,16.80
2013,06,28,17,14,16.80
2013,06,28,17,15,16.80
2013,06,28,17,16,16.70
2013,06,28,17,17,16.70
2013,06,28,17,18,16.70
2013,06,28,17,19,16.70